W4MLN-1 Weather Reports


Display with metric or nautical units.
time (UTC)temp
F
wind
direction
speed
MPH
gust
MPH
rain 1hr
in
rain 24hr
in
rain mn
in
humidity
%
barometer
mb
20260504172937 65 317 5.0 14.0 0.00 0.00 0.00 54 1015.8
20260504172437 66 301 4.0 14.0 0.00 0.00 0.00 52 1015.7
20260504171937 65 184 4.0 10.0 0.00 0.00 0.00 54 1015.7
20260504171437 65 263 4.0 14.0 0.00 0.00 0.00 52 1015.7
20260504170937 64 44 4.0 14.0 0.00 0.00 0.00 53 1015.8
20260504170437 64 267 4.0 10.0 0.00 0.00 0.00 53 1015.8
20260504160429 62 269 4.0 9.0 0.00 0.00 0.00 57 1016.1
20260504150925 55 202 2.0 6.0 0.00 0.00 0.00 68 1017.4
20260504150425 55 42 3.0 10.0 0.00 0.00 0.00 68 1017.5
20260504140920 56 306 5.0 17.0 0.00 0.00 0.00 57 1017.7
20260504140417 56 297 5.0 11.0 0.00 0.00 0.00 56 1017.5
20260504130415 44 21 0.0 2.0 0.00 0.00 0.00 81 1017.0
20260504110334 31 0 0.0 1.0 0.00 0.00 0.00 100 1016.4
20260504100319 31 319 1.0 2.0 0.00 0.00 0.00 99 1016.5
20260504081752 33 316 3.0 5.0 0.00 0.00 0.00 97 1016.3
20260504081252 33 306 2.0 5.0 0.00 0.00 0.00 97 1016.3
20260504080752 33 313 3.0 5.0 0.00 0.00 0.00 97 1016.3
20260504080238 33 305 3.0 6.0 0.00 0.00 0.00 97 1016.2
20260504070222 33 311 4.0 6.0 0.00 0.00 0.00 96 1016.4
20260504060221 35 347 2.0 3.0 0.00 0.00 0.00 93 1017.0
20260504050720 36 293 0.0 2.0 0.00 0.00 0.00 90 1016.9
20260504050220 36 291 0.0 2.0 0.00 0.00 0.00 90 1016.9
20260504045720 36 11 0.0 2.0 0.00 0.00 0.00 90 1016.9
20260504045220 36 298 0.0 2.0 0.00 0.00 0.00 89 1016.9
20260504044720 36 0 1.0 3.0 0.00 0.00 0.00 89 1016.9
20260504044220 37 10 1.0 4.0 0.00 0.00 0.00 89 1016.9
20260504043720 37 304 2.0 4.0 0.00 0.00 0.00 87 1016.7
20260504043220 37 354 1.0 2.0 0.00 0.00 0.00 87 1016.9
20260504042721 37 335 1.0 2.0 0.00 0.00 0.00 88 1016.9
20260504042218 37 299 1.0 3.0 0.00 0.00 0.00 87 1016.9
20260504041717 37 0 1.0 3.0 0.00 0.00 0.00 87 1017.0
20260504041214 38 285 1.0 2.0 0.00 0.00 0.00 86 1017.0
20260504040714 38 0 0.0 2.0 0.00 0.00 0.00 86 1017.0
20260504040211 38 267 1.0 2.0 0.00 0.00 0.00 86 1017.0
20260504035712 38 294 1.0 3.0 0.00 0.00 0.00 86 1016.9
20260504035212 37 290 1.0 3.0 0.00 0.00 0.00 86 1016.9
20260504034712 37 303 1.0 3.0 0.00 0.00 0.00 86 1016.7
20260504034212 38 282 1.0 3.0 0.00 0.00 0.00 85 1016.7
20260504033713 38 287 1.0 3.0 0.00 0.00 0.00 83 1016.7
20260504033209 38 338 1.0 3.0 0.00 0.00 0.00 84 1016.7
20260504032711 38 307 1.0 3.0 0.00 0.00 0.00 83 1016.9
20260504032209 38 304 1.0 3.0 0.00 0.00 0.00 82 1016.7
20260504031710 39 0 1.0 4.0 0.00 0.00 0.00 81 1016.9
20260504031207 39 305 1.0 4.0 0.00 0.00 0.00 80 1016.7
20260504030708 39 359 2.0 4.0 0.00 0.00 0.00 80 1016.6
20260504030207 40 291 1.0 4.0 0.00 0.00 0.00 78 1016.6
20260504025707 40 311 1.0 6.0 0.00 0.00 0.00 78 1016.6
20260504025206 40 301 2.0 6.0 0.00 0.00 0.00 77 1016.6
20260504024707 40 281 2.0 6.0 0.00 0.00 0.00 76 1016.6
20260504024207 40 297 2.0 6.0 0.00 0.00 0.00 76 1016.7
20260504023708 40 318 2.0 4.0 0.00 0.00 0.00 76 1016.6
20260504023207 41 310 2.0 4.0 0.00 0.00 0.00 75 1016.6
20260504022707 41 283 1.0 3.0 0.00 0.00 0.00 73 1016.7
20260504022207 41 0 1.0 3.0 0.00 0.00 0.00 73 1016.7
20260504021704 42 301 2.0 4.0 0.00 0.00 0.00 72 1016.7
20260504021202 42 286 2.0 4.0 0.00 0.00 0.00 73 1016.7
20260504020701 42 297 2.0 3.0 0.00 0.00 0.00 70 1016.7
20260504020202 43 279 1.0 2.0 0.00 0.00 0.00 69 1016.5
20260504015702 43 303 2.0 4.0 0.00 0.00 0.00 68 1016.5
20260504015202 43 353 2.0 5.0 0.00 0.00 0.00 66 1016.5
20260504014703 43 316 2.0 5.0 0.00 0.00 0.00 68 1016.5
20260504014202 43 305 2.0 3.0 0.00 0.00 0.00 65 1016.2
20260504013703 44 313 2.0 3.0 0.00 0.00 0.00 65 1016.1
20260504013202 44 308 1.0 2.0 0.00 0.00 0.00 63 1016.1
20260504012702 44 0 0.0 2.0 0.00 0.00 0.00 64 1016.1
20260504012200 44 302 1.0 3.0 0.00 0.00 0.00 63 1016.2
20260504011700 45 283 2.0 3.0 0.00 0.00 0.00 63 1016.1
20260504011157 45 286 2.0 4.0 0.00 0.00 0.00 62 1016.1
20260504010656 45 276 2.0 4.0 0.00 0.00 0.00 63 1016.0
20260504010157 46 309 3.0 5.0 0.00 0.00 0.00 60 1015.9
20260504005657 47 313 3.0 5.0 0.00 0.00 0.00 59 1015.8
20260504005157 48 302 3.0 5.0 0.00 0.00 0.00 55 1015.8
20260504004657 49 319 2.0 4.0 0.00 0.00 0.00 51 1015.8
20260504004158 49 327 1.0 3.0 0.00 0.00 0.00 48 1015.8
20260504003657 50 277 2.0 4.0 0.00 0.00 0.00 49 1015.8
20260504003158 51 285 2.0 4.0 0.00 0.00 0.00 47 1015.8
20260504002655 51 323 1.0 4.0 0.00 0.00 0.00 44 1015.7
20260504002154 52 0 2.0 4.0 0.00 0.00 0.00 44 1015.7
20260504001652 52 16 2.0 4.0 0.00 0.00 0.00 41 1015.7
20260504001151 53 290 2.0 3.0 0.00 0.00 0.00 41 1015.6
20260504000648 53 304 2.0 3.0 0.00 0.00 0.00 41 1015.6
20260504000149 54 297 2.0 4.0 0.00 0.00 0.00 39 1015.6
20260503235650 54 293 2.0 4.0 0.00 0.00 0.00 37 1015.6
20260503235149 54 304 2.0 5.0 0.00 0.00 0.00 37 1015.6
20260503234649 55 276 3.0 6.0 0.00 0.00 0.00 37 1015.6
20260503234149 55 284 3.0 6.0 0.00 0.00 0.00 35 1015.6
20260503233649 56 305 3.0 7.0 0.00 0.00 0.00 35 1015.4
20260503233149 56 257 3.0 7.0 0.00 0.00 0.00 33 1015.4
20260503232646 57 190 3.0 7.0 0.00 0.00 0.00 33 1015.3
20260503232144 57 261 3.0 7.0 0.00 0.00 0.00 33 1015.3
20260503231643 57 249 4.0 8.0 0.00 0.00 0.00 33 1015.3
20260503231144 57 314 4.0 10.0 0.00 0.00 0.00 32 1015.3
20260503230643 57 294 4.0 10.0 0.00 0.00 0.00 32 1015.3
20260503230144 58 1 4.0 10.0 0.00 0.00 0.00 33 1015.3
20260503225644 58 228 4.0 8.0 0.00 0.00 0.00 31 1015.3
20260503225144 58 1 4.0 9.0 0.00 0.00 0.00 32 1015.3
20260503224644 58 163 4.0 9.0 0.00 0.00 0.00 36 1015.3
20260503224144 58 309 3.0 8.0 0.00 0.00 0.00 35 1015.3
20260503223644 58 315 3.0 8.0 0.00 0.00 0.00 36 1015.4
20260503223144 58 259 4.0 8.0 0.00 0.00 0.00 35 1015.4
20260503222645 58 9 4.0 8.0 0.00 0.00 0.00 34 1015.4
20260503222142 58 251 4.0 9.0 0.00 0.00 0.00 35 1015.6
20260503221641 58 284 4.0 9.0 0.00 0.00 0.00 34 1015.6
20260503221142 58 112 4.0 9.0 0.00 0.00 0.00 36 1015.6
20260503220638 58 304 4.0 9.0 0.00 0.00 0.00 35 1015.6
20260503220139 58 125 4.0 10.0 0.00 0.00 0.00 35 1015.4
20260503215639 58 245 5.0 12.0 0.00 0.00 0.00 35 1015.6
20260503215139 58 239 4.0 12.0 0.00 0.00 0.00 34 1015.6
20260503214639 59 289 3.0 8.0 0.00 0.00 0.00 34 1015.7
20260503214139 59 6 4.0 8.0 0.00 0.00 0.00 33 1015.7
20260503213639 58 177 4.0 9.0 0.00 0.00 0.00 33 1015.6
20260503213139 58 234 3.0 9.0 0.00 0.00 0.00 33 1015.6
20260503212639 59 185 4.0 10.0 0.00 0.00 0.00 33 1015.8
20260503212136 59 287 4.0 10.0 0.00 0.00 0.00 33 1015.6
20260503211637 59 250 3.0 8.0 0.00 0.00 0.00 34 1015.8
20260503211136 59 132 3.0 9.0 0.00 0.00 0.00 36 1015.8
20260503210637 58 221 4.0 10.0 0.00 0.00 0.00 35 1015.8
20260503210136 58 308 4.0 10.0 0.00 0.00 0.00 36 1015.8
20260503205637 58 233 4.0 10.0 0.00 0.00 0.00 34 1015.8
20260503205138 58 230 4.0 10.0 0.00 0.00 0.00 35 1015.8
20260503204637 58 197 3.0 7.0 0.00 0.00 0.00 36 1015.9
20260503204138 58 128 4.0 13.0 0.00 0.00 0.00 36 1015.9
20260503203637 58 237 4.0 13.0 0.00 0.00 0.00 36 1016.1
20260503203135 59 302 4.0 12.0 0.00 0.00 0.00 36 1016.0
20260503202634 58 303 4.0 9.0 0.00 0.00 0.00 36 1016.0
20260503202134 59 287 3.0 9.0 0.00 0.00 0.00 37 1016.1
20260503201635 59 109 3.0 8.0 0.00 0.00 0.00 37 1016.1
20260503201135 58 306 4.0 8.0 0.00 0.00 0.00 38 1016.1
20260503200635 58 301 4.0 11.0 0.00 0.00 0.00 35 1016.2
20260503200135 58 2 4.0 11.0 0.00 0.00 0.00 35 1016.2
20260503195635 59 286 4.0 9.0 0.00 0.00 0.00 35 1016.3
20260503195135 58 258 4.0 12.0 0.00 0.00 0.00 36 1016.3
20260503194635 59 307 4.0 12.0 0.00 0.00 0.00 37 1016.3
20260503194135 59 274 3.0 9.0 0.00 0.00 0.00 34 1016.3
20260503193635 58 6 2.0 7.0 0.00 0.00 0.00 37 1016.4
20260503193135 58 105 3.0 7.0 0.00 0.00 0.00 37 1016.4
20260503192633 58 239 4.0 8.0 0.00 0.00 0.00 33 1016.5
20260503192134 58 255 3.0 8.0 0.00 0.00 0.00 32 1016.6
20260503191634 57 105 3.0 7.0 0.00 0.00 0.00 36 1016.6
20260503191134 57 323 3.0 7.0 0.00 0.00 0.00 33 1016.7
20260503190634 57 243 3.0 9.0 0.00 0.00 0.00 34 1016.6
20260503190134 57 273 4.0 9.0 0.00 0.00 0.00 33 1016.7
20260503185634 57 307 4.0 9.0 0.00 0.00 0.00 35 1016.7
20260503185134 57 272 4.0 9.0 0.00 0.00 0.00 37 1017.0
20260503184634 56 179 4.0 9.0 0.00 0.00 0.00 37 1017.0
20260503184134 56 259 4.0 9.0 0.00 0.00 0.00 37 1017.0
20260503183634 55 251 4.0 9.0 0.00 0.00 0.00 35 1017.1
20260503183135 55 295 4.0 12.0 0.00 0.00 0.00 34 1017.2
20260503182633 55 313 5.0 12.0 0.00 0.00 0.00 32 1017.1
20260503182134 55 305 5.0 12.0 0.00 0.00 0.00 33 1017.1
20260503181635 55 71 4.0 9.0 0.00 0.00 0.00 33 1017.3
20260503181134 55 249 4.0 10.0 0.00 0.00 0.00 35 1017.3
20260503180634 54 4 4.0 10.0 0.00 0.00 0.00 34 1017.3
20260503180134 54 319 4.0 9.0 0.00 0.00 0.00 34 1017.3
20260503175634 54 278 4.0 9.0 0.00 0.00 0.00 37 1017.4
20260503175134 53 334 4.0 9.0 0.00 0.00 0.00 40 1017.4
20260503174634 53 293 4.0 9.0 0.00 0.00 0.00 38 1017.4
20260503174134 53 51 4.0 9.0 0.00 0.00 0.00 43 1017.5
20260503173631 53 315 5.0 11.0 0.00 0.00 0.00 38 1017.5